weather.gov     
National Weather Service

Regional Weather Roundup
NWS Homepage
This page is being discontinued on March 12, 2014.
The same data is available at this site. Please update your bookmarks.
Thank you, and we apologize for the inconvenience.
Please send an email to SR-SRH.Webmaster@noaa.gov with any concerns.


Current Version
Previous Version:    01  02  03  04  05  06  07  08  09  10  11  12  13  14  15  16  17  18  19  20  21  22  23  24  25  26  27  28  29  
[Printable]
412
ASUS43 KDMX 301207
RWRIA

WEATHER ROUNDUP FOR IOWA
NATIONAL WEATHER SERVICE DES MOINES IA
700 AM CDT TUE SEP 30 2014

NOTE: "FAIR" INDICATES FEW OR NO CLOUDS BELOW 12,000 FEET WITH NO
SIGNIFICANT WEATHER AND/OR OBSTRUCTIONS TO VISIBILITY.

* - THESE STATIONS ARE NOT NWS STATIONS...THUS NOT UNDER NWS
QUALITY CONTROL.  THEY ALSO DO NOT REPORT WEATHER SUCH
AS PRECIPITATION OR FOG.

IAZ001>003-012>014-020>022-031>034-043>046-301300-
   NORTHWEST IOWA

CITY           SKY/WX    TMP DP  RH WIND       PRES   REMARKS
CARROLL *      CLOUDY    54  54 100 SE7       29.95R FOG
CHEROKEE *     CLOUDY    53  53  99 SE5       29.94S
DENISON *      CLOUDY    57  57 100 E6        29.91F FOG
LE MARS *        N/A     55  54  94 VRB7G13   29.90F
ORANGE CITY *  CLOUDY    54  50  87 E7        29.91S
SHELDON *      CLOUDY    52  50  93 E9        29.92S
SIOUX CITY     CLOUDY    58  55  90 E12       29.87F
6HR MIN TEMP:  57; 6HR MAX TEMP:  62;

SPENCER        CLOUDY    51  48  89 E13       29.95F
6HR MIN TEMP:  51; 6HR MAX TEMP:  53;

STORM LAKE *   CLOUDY    52  52 100 SE10      29.96R
$$

IAZ055>058-069>071-079>083-090>094-301300-
   SOUTHWEST IOWA

CITY           SKY/WX    TMP DP  RH WIND       PRES   REMARKS
ATLANTIC *     CLOUDY    61  59  94 E8        29.93S FOG
AUDUBON *      CLOUDY    57  52  82 SE7       29.96R HAZE
CLARINDA *       N/A     55  55 100 CALM      29.94S
COUNCIL BLFS *   N/A     61  61 100 E9        29.88F
CRESTON *      FOG       59  59 100 E12       29.95S VSB 1/4
HARLAN  *      CLOUDY    59  59 100 E8        29.96S FOG
LAMONI         FOG       60  59  96 E6        29.95S VSB 3/4
6HR MIN TEMP:  59; 6HR MAX TEMP:  65;

RED OAK *      CLOUDY    61  59  94 E5        29.92S FOG
SHENANDOAH *   MOCLDY    59  57  94 NE6       29.91S
$$

IAZ047>049-059>061-072>074-084-301300-
   CENTRAL IOWA

CITY           SKY/WX    TMP DP  RH WIND       PRES   REMARKS
AMES           CLOUDY    56  54  93 E9        29.98S
6HR MIN TEMP:  54; 6HR MAX TEMP:  56;

ANKENY *       CLOUDY    57  55  94 E7G15     29.98R
CHARITON *     FOG       59  59 100 E10       29.97S VSB 1/2
DES MOINES     CLOUDY    59  56  89 SE10      29.97R
6HR MIN TEMP:  58; 6HR MAX TEMP:  63;

GRINNELL*      CLOUDY    55  53  94 E12       30.00S
KNOXVILLE *    CLOUDY    57  55  94 E9        29.97R FOG
MARSHALLTOWN   CLOUDY    54  53  97 E13       29.99F
6HR MIN TEMP:  54; 6HR MAX TEMP:  55;

PELLA *        CLOUDY    57  56  95 E7        30.00R
PERRY *        CLOUDY    56  55  96 E6        29.96S
$$

IAZ004>006-015-016-023>025-035-036-301300-
   NORTH CENTRAL IOWA

CITY           SKY/WX    TMP DP  RH WIND       PRES   REMARKS
ALGONA *       CLOUDY    52  52 100 SE9       29.99R
CLARION *      CLOUDY    52  50  93 E15G23    29.99S
ESTHERVILLE    CLOUDY    48  47  96 E10       29.98S
6HR MIN TEMP:  47; 6HR MAX TEMP:  49;

FORT DODGE *   CLOUDY    54  48  82 E12       29.98S
MASON CITY     CLOUDY    48  46  93 E10       30.03S
6HR MIN TEMP:  47; 6HR MAX TEMP:  49;

FOREST CITY *  CLOUDY    46  46 100 E9        30.01S
IOWA FALLS *   CLOUDY    52  50  93 E9        30.01S
$$

IAZ007>011-017>019-026>030-037>042-050>054-066-301300-
   NORTHEAST IOWA

CITY           SKY/WX    TMP DP  RH WIND       PRES   REMARKS
CEDAR RAPIDS   CLOUDY    54  50  87 E14       30.00F
CHARLES CITY * CLOUDY    48  46  93 E10       30.05R
CLINTON *      CLOUDY    52  46  82 E8        30.07S
DECORAH *      CLOUDY    48  46  93 E7        30.05S
MONTICELLO *   CLOUDY    50  48  93 E7        30.04S
OELWEIN *      CLOUDY    52  48  87 E10       30.04S
WATERLOO       CLOUDY    52  50  93 E12       30.01F
6HR MIN TEMP:  51; 6HR MAX TEMP:  55;

$$

IAZ064-065-067-068-078-301300-
   EAST CENTRAL IOWA

CITY           SKY/WX    TMP DP  RH WIND       PRES   REMARKS
IOWA CITY      CLOUDY    54  52  93 E10G20    30.03S
6HR MIN TEMP:  54; 6HR MAX TEMP:  59;

MT. PLEASANT * MOCLDY    55  52  90 E7        30.01R
MUSCATINE *    CLOUDY    57  54  88 E13       30.01S
$$

IAZ062-063-075>077-085>089-095>099-301300-
   SOUTHEAST IOWA

CITY           SKY/WX    TMP DP  RH WIND       PRES   REMARKS
BURLINGTON     CLOUDY    57  56  96 E7        29.99S
6HR MIN TEMP:  57; 6HR MAX TEMP:  65;

FAIRFIELD *    CLOUDY    57  55  94 E9        29.99S FOG
FORT MADISON * CLOUDY    59  55  88 E6        30.00S FOG
KEOKUK *       CLOUDY    59  57  94 E6        29.98S FOG
OSKALOOSA *    CLOUDY    55  54  94 E8        30.00R
CENTERVILLE *  FOG       59  59 100 E7        29.99R VSB 1
OTTUMWA        CLOUDY    56  54  93 E8        29.99S
6HR MIN TEMP:  56; 6HR MAX TEMP:  63;

WASHINGTON *   CLOUDY    57  57 100 E7        30.01R FOG
$$

ABBREVIATIONS USED IN REMARKS
   TC - TEMPERATURES IN CELSIUS
  WCI - WIND CHILL INDEX
   HX - HEAT INDEX
  VSB - VISIBILITY
$$





U.S. Dept. of Commerce
NOAA National Weather Service
1325 East West Highway
Silver Spring, MD 20910
E-mail: w-nws.webmaster@noaa.gov
Page last modified: May 16, 2007
NATIONAL WEATHER SERVICE: for Safety, for Work, for Fun - FOR LIFE